Location: Clermont
(50.2608°N, 4.3172°E)
Time: 04:46:14
(UTC+00:00)

Cosmos 1821 Rocket - Pass Details

Date: 13 August 2020
Orbit: 946 x 1004 km, 82.9° (Epoch: 19 September)

Event Time Altitude Azimuth Distance (km) Brightness Sun altitude
Rises 20:04:59 0° 194° (SSW) 3,623 6.8 -9.2°
Reaches altitude 10° 20:07:28 10° 197° (SSW) 2,689 6.1 -9.5°
Maximum altitude 20:13:37 72° 281° (WNW) 1,020 4.3 -10.3°
Drops below altitude 10° 20:19:54 10° 7° (N) 2,747 6.8 -11.1°
Sets 20:22:28 0° 9° (N) 3,708 7.5 -11.4°
